{"data":{"norad_id":59203,"intl_designator":"2024-046C","name":"STARLINK-31577","alt_names":[],"object_type":"PAYLOAD","status":"ACTIVE","operator":null,"country":"US","launch_date":"2024-03-11","launch_site_code":"AFWTR","launch_vehicle":null,"mission":null,"orbit_class":"UNKNOWN","rcs_meters":null,"size_class":null,"mass_kg":null,"dimensions":null,"purposes":["comms"],"wikipedia_slug":null,"has_3d_model":false,"image_url":null,"decayed_at":null,"tle_current":{"epoch":"2026-09-20T22:00:03.000096Z","epoch_age_seconds":122865,"freshness":"FRESH","line1":"1 59203U 24046C   26263.91670139 -.00001382  00000+0 -29785-4 0  9990","line2":"2 59203  53.1604 323.7269 0001217  82.5130  54.1512 15.34391936  5885","mean_motion":15.34391936,"eccentricity":0.0001217,"inclination_deg":53.1604,"raan_deg":323.7269,"arg_perigee_deg":82.513,"mean_anomaly_deg":54.1512,"bstar":-2.9785e-5,"rev_number":588,"period_min":93.848251298422,"perigee_km":461.89467504535,"apogee_km":463.55974139363,"semimajor_km":6840.8642082195,"source":"CELESTRAK","updated_at":"2026-09-21T09:00:34.067897Z"}}}